User: anonymous   Login
Location: Chanteloup
(48.8560°N, 2.7390°E)
Time: 00:16:48
(UTC+00:00)
Language:

DMSP 5D-2 F11 DEB - Orbit

View from above orbital plane
View from above orbital plane
View from above satellite
View from above satellite

Ground track
Ground track

The orbit data is extracted from the following two-line orbital elements,

1 29072U 91082BT  22222.44999408  .00035134  00000-0  42735-2 0  9996
2 29072  98.9003  91.8580 0044199   7.1875 352.9959 14.82653751935536
Epoch (UTC): 10 August 2022 10:47:59
Eccentricity: 0.0044199
inclination: 98.9003°
perigee height: 590 km
apogee height: 652 km
right ascension of ascending node: 91.8580°
argument of perigee: 7.1875°
revolutions per day: 14.82653751
mean anomaly at epoch: 352.9959°
orbit number at epoch: 93553

The dashed part of the orbit path shows where the satellite is in the earth's shadow,  

DLR